Find Local Weather

World > North America > United States > Illinois

Chicago, Illinois Regional Weather

Lat: 41.88N, Lon: 87.63W
Wx Zone: ILZ014
Warning FLW WEATHER ALERT - (More Info. Click Here) Warning
Feedback
Expires:201808180900;;243047
ASUS43 KLOT 180809
RWRIL 

ILLINOIS REGIONAL WEATHER ROUNDUP
NATIONAL WEATHER SERVICE CHICAGO/ROMEOVILLE IL
300 AM CDT SAT AUG 18 2018

NOTE: "FAIR" INDICATES FEW OR NO CLOUDS BELOW 12,000 FEET WITH NO
SIGNIFICANT WEATHER AND/OR OBSTRUCTIONS TO VISIBILITY.

* THESE STATIONS ARE NOT UNDER NWS QUALITY CONTROL. THEY ALSO MAY NOT
  REPORT WEATHER SUCH AS PRECIPITATION OR FOG.


ILZ005-006-012>014-019>023-180900-
NORTHEAST ILLINOIS
  
CITY           SKY/WX    TMP DP  RH WIND       PRES   REMARKS
CHICAGO-OHARE  FAIR      71  68  90 N6        30.00R                  
CHICAGO-MIDWAY FAIR      72  71  97 NW3       29.99S                  
AURORA         FAIR      66  66 100 N7        30.01R FOG              
LANSING*       FAIR      67  67 100 CALM      29.99S                  
JOLIET*          N/A     69  69 100 CALM      29.99S FOG              
WAUKEGAN       FAIR      69  69 100 N3        30.01R FOG              
DUPAGE AIRPORT FAIR      68  67  96 N6        30.00S FOG              
KANKAKEE*      FAIR      69  68  98 CALM      30.00S FOG              
WHEELING       FAIR      71  67  87 N3        30.01S                  
MORRIS*        FAIR      66  65  99 CALM      29.99R FOG              
ROMEOVILLE*    FAIR      67  67 100 CALM      30.00S FOG              
NORTHERLY ISL    N/A     74  69  85 N6          N/A                   
$$


SKY/WX - Weather  TMP - Temperature  DP - Dewpoint  RH - Relative Humidity
WIND - Wind Direction/Speed PRES - Barometric Pressure